TimeEDT,TemperatureF,Dew PointF,Humidity,Sea Level PressureIn,VisibilityMPH,Wind Direction,Wind SpeedMPH,Gust SpeedMPH,PrecipitationIn,Events,Conditions,WindDirDegrees,DateUTC
12:54 AM,28.0,24.1,85,30.39,4.0,Calm,Calm,-,N/A,,Clear,0,2013-03-10 05:54:00
1:38 AM,26.6,23.0,86,30.39,1.5,Calm,Calm,-,N/A,,Partly Cloudy,0,2013-03-10 06:38:00
1:42 AM,26.6,23.0,86,30.39,0.8,Calm,Calm,-,N/A,,Mist,0,2013-03-10 06:42:00
1:50 AM,26.6,21.2,80,30.39,0.5,Calm,Calm,-,N/A,Fog,Light Freezing Fog,0,2013-03-10 06:50:00
1:54 AM,25.0,21.9,88,30.39,1.8,Calm,Calm,-,N/A,,Partly Cloudy,0,2013-03-10 06:54:00
3:01 AM,26.6,21.2,80,30.38,6.0,Calm,Calm,-,N/A,,Partly Cloudy,0,2013-03-10 07:01:00
3:46 AM,24.8,21.2,86,30.38,1.8,Calm,Calm,-,N/A,,Clear,0,2013-03-10 07:46:00
3:54 AM,24.1,21.0,88,30.39,1.5,Calm,Calm,-,N/A,,Clear,0,2013-03-10 07:54:00
3:58 AM,24.8,21.2,86,30.38,3.0,Calm,Calm,-,N/A,,Clear,0,2013-03-10 07:58:00
4:54 AM,24.1,21.0,88,30.39,10.0,Calm,Calm,-,N/A,,Clear,0,2013-03-10 08:54:00
5:07 AM,24.8,19.4,80,30.39,1.5,Calm,Calm,-,N/A,,Partly Cloudy,0,2013-03-10 09:07:00
5:24 AM,24.8,19.4,80,30.39,1.0,Calm,Calm,-,N/A,,Mist,0,2013-03-10 09:24:00
5:30 AM,24.8,21.2,86,30.39,2.5,Calm,Calm,-,N/A,,Scattered Clouds,0,2013-03-10 09:30:00
5:37 AM,23.0,19.4,86,30.39,6.0,Calm,Calm,-,N/A,,Scattered Clouds,0,2013-03-10 09:37:00
5:54 AM,23.0,19.9,88,30.40,6.0,Calm,Calm,-,N/A,,Clear,0,2013-03-10 09:54:00
6:54 AM,23.0,19.9,88,30.40,9.0,Calm,Calm,-,N/A,,Clear,0,2013-03-10 10:54:00
7:27 AM,23.0,19.4,86,30.40,1.0,Calm,Calm,-,N/A,,Mist,0,2013-03-10 11:27:00
7:42 AM,24.8,21.2,86,30.41,1.8,Calm,Calm,-,N/A,,Partly Cloudy,0,2013-03-10 11:42:00
7:47 AM,24.8,21.2,86,30.41,3.0,Calm,Calm,-,N/A,,Partly Cloudy,0,2013-03-10 11:47:00
8:54 AM,27.0,24.1,89,30.43,10.0,Calm,Calm,-,N/A,,Clear,0,2013-03-10 12:54:00
9:01 AM,26.6,24.8,93,30.42,10.0,Calm,Calm,-,N/A,,Mostly Cloudy,0,2013-03-10 13:01:00
9:54 AM,32.0,28.0,85,30.44,10.0,Calm,Calm,-,N/A,,Overcast,0,2013-03-10 13:54:00
10:54 AM,37.0,30.0,76,30.43,10.0,NE,3.5,-,N/A,,Overcast,40,2013-03-10 14:54:00
11:54 AM,39.0,28.0,65,30.43,10.0,ENE,4.6,-,N/A,,Overcast,60,2013-03-10 15:54:00
12:51 PM,42.8,28.4,57,30.40,10.0,East,5.8,-,N/A,,Scattered Clouds,80,2013-03-10 16:51:00
12:54 PM,42.1,28.0,58,30.41,10.0,Variable,3.5,-,N/A,,Scattered Clouds,0,2013-03-10 16:54:00
1:54 PM,43.0,28.0,56,30.39,10.0,East,4.6,-,N/A,,Clear,80,2013-03-10 17:54:00
2:54 PM,44.1,28.0,53,30.37,10.0,ENE,4.6,-,N/A,,Clear,60,2013-03-10 18:54:00
3:54 PM,44.1,28.9,55,30.36,10.0,Variable,4.6,-,N/A,,Clear,0,2013-03-10 19:54:00
4:54 PM,44.1,28.9,55,30.35,10.0,SSE,6.9,-,N/A,,Clear,160,2013-03-10 20:54:00
5:54 PM,42.1,28.9,60,30.35,10.0,SE,4.6,-,N/A,,Clear,140,2013-03-10 21:54:00
6:54 PM,37.9,28.9,70,30.36,10.0,SE,5.8,-,N/A,,Clear,130,2013-03-10 22:54:00
7:54 PM,37.0,28.9,73,30.37,10.0,ESE,3.5,-,N/A,,Clear,120,2013-03-10 23:54:00
8:54 PM,36.0,28.9,76,30.36,10.0,Calm,Calm,-,N/A,,Clear,0,2013-03-11 00:54:00
10:54 PM,36.0,30.0,79,30.34,10.0,South,3.5,-,N/A,,Partly Cloudy,190,2013-03-11 02:54:00
11:54 PM,37.0,30.0,76,30.34,10.0,Calm,Calm,-,N/A,,Clear,0,2013-03-11 03:54:00
12:54 AM,37.4,30.2,75,30.31,10.0,SSE,5.8,-,N/A,,Clear,160,2013-03-11 04:54:00